Location: *
(42.3442°N, 9.2072°E)
Time: 21:58:32
(UTC+00:00)

CZ-2C R/B - Pass Details

Date: 09 April 2020
Orbit: 785 x 870 km, 98.3° (Epoch: 05 June)

Event Time Altitude Azimuth Distance (km) Brightness Sun altitude
Rises 19:17:51 0° 18° (NNE) 3,286 5.9 -14.7°
Reaches altitude 10° 19:20:15 10° 23° (NNE) 2,355 5.1 -15.1°
Maximum altitude 19:25:17 51° 100° (E) 992 2.7 -15.9°
Drops below altitude 10° 19:30:21 10° 176° (S) 2,366 4.7 -16.8°
Enters shadow 19:31:57 - 179° (S) 2,987 5.3 -17.0°
